Weather History for Beverly, MA

Change the Weather History Date:

Monday, June 3, 2013

  Actual Average Record
Temperature  
Mean Temperature 70 °F -  
Max Temperature 77 °F 68 °F 82 °F (1999)
Min Temperature 61 °F 48 °F 25 °F (1994)
Cooling Degree Days 4    
Growing Degree Days 20 (Base 50)    
Moisture  
Dew Point 61 °F    
Average Humidity 78    
Maximum Humidity 94    
Minimum Humidity 44    
Precipitation  
Precipitation 0.29 in - - ()
Sea Level Pressure  
Sea Level Pressure 29.79 in    
Wind  
Wind Speed 6 mph (SW)    
Max Wind Speed 10 mph    
Max Gust Speed -    
Visibility 8 miles    
Events Rain    
Averages and records for this station are not official NWS values.
T = Trace of Precipitation, MM = Missing Value Source: NWS Daily Summary

Daily Weather History Graph

Daily Weather History Graph

Search for Another Location

Airport:

Trip Planner

Search our weather history database for the weather conditions in past years. The results will help you decide how hot, cold, wet, or windy it might be!

Date:

Astronomy

Jun. 03, 2013 Rise Set
Actual Time 5:07 AM EDT 8:16 PM EDT
Civil Twilight 4:33 AM EDT 8:50 PM EDT
Nautical Twilight 3:49 AM EDT 9:34 PM EDT
Astronomical Twilight 2:56 AM EDT 10:27 PM EDT
Moon 2:09 AM EDT (6/3) 3:38 PM EDT (6/3)
Length of Visible Light 16h 17m
Length of Day
15h 08m
Waning Crescent, 22% of the Moon is Illuminated
Jun 3
Waning Crescent
Jun 8
New
Jun 16
First Quarter
Jun 23
Full
Jun 30
Last Quarter

Hourly Weather History & Observations

Time (EDT) Temp. Dew Point Humidity Pressure Visibility Wind Dir Wind Speed Gust Speed Precip Events Conditions
12:53 AM 71.1 °F 63.0 °F 75% 29.78 in 10.0 mi West 8.1 mph - N/A   Partly Cloudy
1:53 AM 70.0 °F 63.0 °F 78% 29.78 in 10.0 mi SW 10.4 mph - N/A   Mostly Cloudy
2:53 AM 70.0 °F 63.0 °F 78% 29.77 in 10.0 mi SSW 5.8 mph - N/A   Mostly Cloudy
3:53 AM 69.1 °F 63.0 °F 81% 29.76 in 10.0 mi WSW 3.5 mph - N/A   Overcast
4:53 AM 69.1 °F 63.0 °F 81% 29.78 in 10.0 mi SSW 6.9 mph - N/A   Overcast
5:53 AM 66.9 °F 62.1 °F 84% 29.79 in 10.0 mi South 5.8 mph - N/A   Overcast
6:39 AM 66.2 °F 62.6 °F 88% 29.84 in 5.0 mi SW 8.1 mph - 0.00 in Rain Light Rain
6:53 AM 66.9 °F 64.0 °F 90% 29.83 in 3.0 mi WSW 6.9 mph - 0.02 in Rain Rain
7:11 AM 66.2 °F 64.4 °F 94% 29.84 in 4.0 mi WNW 4.6 mph - 0.02 in Rain Light Rain
7:53 AM 68.0 °F 64.9 °F 90% 29.82 in 5.0 mi WNW 5.8 mph - 0.02 in Rain Light Rain
8:53 AM 66.9 °F 63.0 °F 87% 29.82 in 8.0 mi Calm Calm - 0.05 in Rain Light Rain
9:53 AM 66.9 °F 64.0 °F 90% 29.83 in 7.0 mi South 4.6 mph - 0.03 in Rain Light Rain
10:02 AM 66.2 °F 62.6 °F 88% 29.84 in 6.0 mi SSW 3.5 mph - 0.01 in Rain Light Rain
10:53 AM 66.9 °F 64.0 °F 90% 29.82 in 2.5 mi West 4.6 mph - 0.04 in Rain Rain
11:04 AM 66.2 °F 64.4 °F 94% 29.84 in 4.0 mi WSW 4.6 mph - 0.02 in Rain Light Rain
11:53 AM 66.9 °F 62.1 °F 84% 29.82 in 6.0 mi WSW 3.5 mph - 0.06 in Rain Light Rain
12:24 PM 66.2 °F 62.6 °F 88% 29.81 in 1.8 mi Calm Calm - 0.05 in Rain Rain
12:34 PM 66.2 °F 62.6 °F 88% 29.81 in 3.0 mi Calm Calm - 0.07 in Rain Rain
12:53 PM 68.0 °F 64.0 °F 87% 29.80 in 10.0 mi WSW 6.9 mph - 0.07 in   Overcast
1:07 PM 68.0 °F 62.6 °F 83% 29.82 in 10.0 mi SW 8.1 mph - N/A   Overcast
1:53 PM 71.1 °F 64.0 °F 78% 29.78 in 10.0 mi Variable 4.6 mph - N/A   Scattered Clouds
2:53 PM 73.9 °F 64.9 °F 73% 29.77 in 10.0 mi SSW 5.8 mph - N/A   Mostly Cloudy
3:53 PM 75.9 °F 64.9 °F 69% 29.76 in 10.0 mi SSW 6.9 mph - N/A   Scattered Clouds
4:53 PM 75.9 °F 66.0 °F 71% 29.74 in 10.0 mi SSE 9.2 mph - N/A   Scattered Clouds
5:53 PM 75.0 °F 64.9 °F 71% 29.73 in 10.0 mi SSE 9.2 mph - N/A   Mostly Cloudy
6:53 PM 75.0 °F 64.9 °F 71% 29.73 in 10.0 mi South 4.6 mph - N/A   Mostly Cloudy
7:53 PM 75.0 °F 57.0 °F 53% 29.74 in 10.0 mi WSW 9.2 mph - N/A   Mostly Cloudy
8:53 PM 72.0 °F 55.0 °F 55% 29.77 in 10.0 mi WNW 10.4 mph - N/A   Clear
9:53 PM 69.1 °F 46.0 °F 44% 29.78 in 10.0 mi WNW 8.1 mph - N/A   Clear
10:53 PM 64.0 °F 44.1 °F 48% 29.80 in 10.0 mi WNW 5.8 mph - N/A   Clear
11:53 PM 61.0 °F 45.0 °F 56% 29.80 in 10.0 mi West 4.6 mph - N/A   Clear